Date,TemperatureHighF,TemperatureAvgF,TemperatureLowF,DewpointHighF,DewpointAvgF,DewpointLowF,HumidityHigh,HumidityAvg,HumidityLow,PressureMaxIn,PressureMinIn,WindSpeedMaxMPH,WindSpeedAvgMPH,GustSpeedMaxMPH,PrecipitationSumIn
2013-1-1,79,73,66,69,64,-100,100,78,50,30.18,30.03,9,3,19,0.00
2013-1-2,82,68,60,78,40,-100,100,42,17,30.08,29.97,4,0,10,0.00
2013-1-3,81,73,66,77,7,-100,100,31,18,30.12,30.00,4,0,11,0.00
2013-1-4,108,70,55,70,7,-100,78,21,22,30.21,30.09,3,1,9,0.00
2013-1-5,73,66,59,35,30,24,28,26,23,30.24,30.14,4,1,10,0.10
2013-1-21,77,70,65,65,56,50,70,62,52,30.06,29.93,4,0,12,0.17
2013-1-22,75,68,62,72,35,-100,100,62,42,30.20,29.97,9,3,20,0.00
2013-1-23,74,66,60,74,48,-100,100,78,2,30.28,30.18,7,2,16,0.00
2013-1-24,74,65,58,70,41,-100,100,61,1,30.27,30.17,7,1,16,0.00
2013-1-25,63,59,57,63,34,-100,100,83,1,30.25,30.20,2,0,8,0.00
2013-1-26,76,66,55,75,52,-100,100,79,1,30.23,30.14,4,1,11,0.00
2013-1-27,77,67,61,77,60,-100,100,92,4,30.27,30.18,7,1,16,0.00
2013-1-28,79,72,51,79,62,-100,100,93,8,30.30,30.20,8,3,16,0.00
2013-1-29,80,72,63,100,51,-100,100,70,2,30.21,30.10,8,2,17,0.02
2013-1-30,80,73,67,80,66,-100,100,93,1,30.10,29.94,10,3,23,0.00
2013-1-31,72,66,57,71,50,-100,100,64,36,30.17,29.91,8,2,20,0.00
2013-2-1,72,61,53,67,55,44,98,81,64,30.24,30.13,8,3,17,0.00
2013-2-2,58,56,55,58,46,37,99,72,50,30.22,30.18,2,0,7,0.00
2013-2-3,73,62,54,68,43,-100,100,66,12,30.15,30.04,5,1,14,0.00
2013-2-4,75,61,50,59,44,-100,100,66,12,30.11,30.00,5,1,11,0.00
2013-2-5,78,65,53,77,52,-100,100,78,1,30.06,29.98,5,1,13,0.00
2013-2-6,78,70,59,77,58,-100,100,78,3,30.09,30.00,6,1,14,0.00
2013-2-7,82,72,64,82,38,-100,100,67,1,30.05,29.91,6,1,14,0.00
2013-2-8,81,73,68,81,56,-100,100,65,4,30.02,29.89,7,3,14,0.00
2013-2-9,77,67,64,67,42,-100,100,51,11,30.15,29.99,6,0,12,0.00
2013-2-10,75,71,58,75,71,58,100,100,100,30.25,30.13,9,4,17,0.00
2013-2-11,81,73,66,81,56,-100,100,82,1,30.20,30.08,7,2,16,0.00
2013-2-12,85,73,62,85,48,-100,100,70,1,30.16,29.95,7,2,15,0.00
2013-2-13,89,77,66,89,52,-100,100,66,3,30.03,29.86,11,3,18,0.00
2013-2-14,80,72,65,77,48,-100,100,58,1,29.99,29.84,12,1,25,1.51
2013-2-15,71,66,63,54,47,39,65,51,42,30.02,29.90,3,0,8,0.23
2013-2-16,69,64,62,59,54,52,74,70,65,29.94,29.85,6,1,19,0.01
2013-2-17,57,51,44,54,35,-100,100,64,21,30.27,30.05,8,4,24,0.00
2013-2-18,69,58,46,61,43,-100,81,59,44,30.28,30.18,9,3,20,0.00
2013-2-19,81,69,57,76,65,-100,100,88,73,30.18,30.06,8,2,16,0.00
2013-2-20,79,70,62,79,28,-100,100,72,1,30.09,29.99,6,1,13,0.00
2013-2-21,82,73,63,82,39,-100,100,63,1,30.10,29.97,6,2,12,0.00
2013-2-22,84,75,69,83,15,-100,100,50,1,30.08,29.99,8,3,18,0.00
2013-2-23,87,76,70,84,44,-100,100,69,1,30.02,29.89,8,3,17,0.42
2013-2-24,88,74,68,88,45,-100,100,56,3,29.99,29.87,5,1,12,0.00
2013-2-25,86,75,46,85,44,-100,100,56,1,29.95,29.79,8,2,19,0.00
2013-2-26,88,78,73,88,45,-100,100,65,1,29.89,29.77,13,4,26,0.00
2013-2-27,76,70,62,75,10,-100,100,49,1,29.96,29.84,5,1,12,0.67
2013-2-28,70,63,58,70,52,-100,100,89,64,29.98,29.89,6,2,16,0.00
2013-3-1,66,61,56,100,62,56,100,100,100,29.97,29.88,5,2,13,0.00
2013-3-2,66,58,51,57,35,-100,100,66,12,30.02,29.92,14,4,29,0.00
2013-3-3,62,54,49,51,39,-100,100,68,44,30.12,29.93,10,4,24,0.00
2013-3-4,68,53,41,43,31,-100,77,50,13,30.17,30.08,8,2,17,0.00
2013-3-5,78,63,48,68,52,-100,100,76,46,30.15,30.06,6,2,14,0.00
2013-3-6,77,64,53,77,55,28,100,78,27,30.08,29.92,11,4,25,0.00
2013-3-7,72,58,47,57,40,-100,100,56,29,30.17,30.04,6,2,17,0.00
2013-3-8,76,62,52,64,50,-100,100,73,24,30.17,30.08,4,1,13,0.00
2013-3-9,75,64,54,68,48,-100,100,71,52,30.17,30.07,8,1,17,0.00
2013-3-10,77,70,64,61,54,-100,74,58,43,30.16,30.05,8,3,18,0.00
2013-3-11,81,72,67,67,60,-100,86,70,44,30.09,29.93,6,3,17,0.00
2013-3-12,83,74,68,83,62,-100,100,92,19,29.98,29.89,8,3,19,0.00
2013-3-13,75,65,57,74,56,-100,100,83,36,30.10,29.95,6,2,16,0.00
2013-3-14,71,60,54,57,41,-100,100,63,23,30.18,30.06,9,2,20,0.00
2013-3-15,73,61,48,54,44,-100,88,66,33,30.22,30.13,5,1,16,0.00
2013-3-16,79,65,52,70,52,-100,100,73,43,30.17,30.07,5,1,14,0.00
2013-3-17,80,68,56,75,56,-100,100,81,54,30.13,30.01,8,1,16,0.00
2013-3-18,83,71,62,82,59,-100,100,92,78,30.05,29.94,9,2,20,0.53
2013-3-19,78,72,67,78,42,-100,100,71,47,30.01,29.80,10,1,24,0.01
2013-3-20,84,72,62,84,52,-100,100,77,4,29.98,29.78,9,1,23,0.00
2013-3-21,77,66,57,71,32,-100,100,62,1,29.93,29.80,7,2,19,0.00
2013-3-22,77,67,54,75,56,-100,100,92,22,29.98,29.87,6,2,15,0.01
2013-3-23,88,72,70,100,35,-100,100,68,2,29.98,29.77,8,2,17,0.00
2013-3-24,90,78,67,90,31,-100,100,63,1,29.87,29.65,14,5,28,0.00
2013-3-25,78,69,50,76,24,-100,100,52,1,29.97,29.71,8,3,18,0.00
2013-3-26,69,59,46,52,27,-100,100,36,18,30.19,29.97,12,5,27,0.00
2013-3-27,72,58,46,50,40,34,82,53,25,30.22,30.14,6,2,16,0.00
2013-3-28,75,62,51,53,46,29,92,61,24,30.24,30.15,6,1,14,0.00
2013-3-29,76,65,55,56,51,46,95,64,39,30.26,30.18,6,1,15,0.00
2013-3-30,78,66,56,70,55,-100,100,73,33,30.24,30.15,7,1,14,0.00
2013-3-31,84,71,58,77,65,-100,100,89,56,30.18,30.02,8,2,19,0.00
2013-4-1,91,77,67,82,66,49,100,72,35,30.05,29.92,10,2,19,0.00
2013-4-2,88,74,66,81,49,-100,100,74,1,30.08,29.95,5,1,12,0.00
2013-4-3,86,77,69,84,69,-100,100,88,8,30.05,29.97,7,2,17,0.00
2013-4-4,88,76,70,88,69,-100,100,91,53,30.03,29.89,16,3,39,0.42
2013-4-5,72,69,65,66,-71,-100,81,14,81,29.97,29.80,6,2,17,0.29
2013-4-6,77,68,59,77,-31,-100,100,35,1,30.04,29.89,8,3,18,0.01
2013-4-7,78,73,69,78,73,69,100,100,100,30.12,30.00,7,2,16,0.00
2013-4-8,84,73,61,80,55,-100,100,81,3,30.12,30.02,6,1,13,0.00
2013-4-9,83,75,71,83,74,-100,100,99,79,30.13,30.02,8,3,17,0.05
2013-4-10,85,77,71,85,76,59,100,98,65,30.08,29.97,8,3,21,0.00
2013-4-11,86,79,75,86,74,-100,100,92,61,30.00,29.86,10,4,22,0.00
2013-4-12,90,81,77,90,75,64,100,83,58,29.95,29.84,9,4,20,0.13
2013-4-13,87,76,72,86,33,-100,100,64,63,29.96,29.85,5,0,13,0.15
2013-4-14,88,79,71,87,2,-100,100,52,62,29.96,29.87,8,2,21,0.00
2013-4-15,91,78,71,91,-11,-100,100,44,55,30.04,29.90,12,1,24,0.78
2013-4-16,85,77,71,85,-16,-100,100,38,57,30.11,30.00,8,2,17,0.00
2013-4-17,84,78,72,84,71,-100,100,88,61,30.11,30.00,7,2,14,0.00
2013-4-18,87,80,73,87,64,-100,100,83,54,30.05,29.95,9,3,17,0.00
2013-4-19,90,82,76,87,70,-100,100,75,50,30.04,29.93,9,4,22,0.00
2013-4-20,90,78,72,90,38,-100,100,65,52,30.07,29.94,8,1,16,0.30
2013-4-21,85,78,72,85,21,-100,100,65,81,30.09,29.95,9,2,16,0.00
2013-4-22,86,76,72,86,63,-100,100,84,67,30.04,29.91,8,1,15,0.00
2013-4-23,84,76,68,83,57,-100,100,80,65,30.07,29.92,11,4,21,0.00
2013-4-24,85,77,69,79,70,-100,100,85,57,30.11,30.01,6,2,15,0.00
2013-4-25,84,76,68,77,67,-100,100,78,48,30.18,30.06,7,1,17,0.01
2013-4-26,84,76,66,77,69,-100,100,82,61,30.21,30.09,8,2,18,0.00
2013-4-27,83,78,72,71,68,63,87,73,51,30.19,30.07,8,3,21,0.00
2013-4-28,84,78,73,69,66,62,82,69,49,30.10,29.98,8,4,17,0.00
2013-4-29,87,78,72,77,72,66,100,82,60,30.02,29.92,7,2,19,0.00
2013-4-30,86,77,71,86,75,65,100,94,80,29.98,29.89,9,1,17,0.11
2013-5-1,85,75,70,85,4,-100,100,53,67,29.99,29.91,5,1,14,0.29
2013-5-2,80,72,68,73,-93,-100,81,3,81,29.93,29.79,9,2,21,1.65
2013-5-3,87,75,68,87,-38,-100,100,33,81,29.80,29.66,8,1,15,0.14
2013-5-4,88,76,68,88,-13,-100,100,48,100,29.78,29.66,7,2,15,0.07
2013-5-5,83,74,67,83,16,-100,100,54,41,29.91,29.73,7,3,18,0.03
2013-5-6,87,72,59,81,59,-100,100,79,51,30.00,29.90,4,0,13,0.03
2013-5-7,86,73,62,76,64,-100,100,80,42,30.05,29.96,6,2,17,0.00
2013-5-8,89,75,62,78,60,-100,100,72,31,30.12,30.02,5,1,13,0.00
2013-5-9,89,78,66,80,68,-100,100,85,59,30.13,30.04,6,1,13,0.00
2013-5-10,91,81,73,88,48,-100,100,74,64,30.12,30.00,7,2,15,0.00
2013-5-11,91,80,73,91,18,-100,100,61,81,30.06,29.96,7,2,17,0.12
2013-5-12,92,79,71,91,-19,-100,100,42,81,30.05,29.92,8,1,18,0.36
2013-5-13,88,78,71,88,6,-100,100,57,66,30.07,29.97,7,1,16,0.01
2013-5-14,82,76,70,77,66,57,100,73,45,30.16,30.04,8,2,18,0.00
2013-5-15,83,76,67,73,66,60,100,73,47,30.18,30.08,8,2,17,0.00
2013-5-16,87,77,66,78,68,63,100,77,51,30.11,30.02,6,2,13,0.00
2013-5-17,89,78,70,88,64,-100,100,91,81,30.08,29.99,7,2,13,0.00
2013-5-18,87,79,73,87,21,-100,100,66,81,30.12,30.01,7,2,15,0.10
2013-5-19,88,80,72,86,62,-100,100,85,76,30.09,29.98,6,2,14,0.00
2013-5-20,79,75,70,79,-28,-100,100,38,81,30.08,29.97,12,1,27,1.04
2013-5-21,83,76,70,83,-42,-100,100,31,81,30.05,29.92,8,2,16,0.10
2013-5-22,88,77,73,88,-60,-100,100,21,81,29.97,29.88,10,1,19,0.03
2013-5-23,92,81,73,92,-30,-100,100,35,58,30.03,29.89,5,1,16,0.01
2013-5-24,93,82,75,93,-12,-100,100,44,60,30.04,29.93,6,1,12,0.03
2013-5-25,86,80,74,84,26,-100,100,63,7,30.15,30.02,9,3,19,0.01
2013-5-26,85,78,69,82,68,-100,100,83,2,30.16,30.09,9,3,17,0.01
2013-5-27,85,79,73,85,56,-100,100,87,82,30.14,30.06,9,4,18,0.01
2013-5-28,84,78,74,84,21,-100,100,67,81,30.10,30.02,9,5,22,0.26
2013-5-29,82,75,71,82,-73,-100,100,15,81,30.09,30.01,11,4,25,2.47
2013-5-30,84,78,72,84,-6,-100,100,51,81,30.08,29.99,14,7,24,0.07
2013-5-31,84,79,75,84,-19,-100,100,44,81,30.06,29.99,10,5,21,0.07
2013-6-1,85,77,74,74,-96,-100,81,2,81,30.02,29.94,6,1,13,1.40
2013-6-2,89,79,72,89,-52,-100,100,26,81,29.99,29.90,6,0,13,0.03
2013-6-3,86,78,73,86,-76,-100,100,13,81,30.02,29.89,5,0,14,0.75
2013-6-4,85,79,74,84,-85,-100,100,7,81,30.04,29.94,3,0,9,0.05
2013-6-5,83,81,78,77,-93,-100,81,3,81,30.01,29.89,6,1,12,0.11
2013-6-6,88,80,74,83,-93,-100,100,3,81,29.89,29.76,13,5,34,1.37
2013-6-7,91,78,74,91,-68,-100,100,16,81,29.98,29.82,10,1,20,0.43
2013-6-8,86,78,74,75,-99,-100,81,0,81,30.10,29.95,6,1,13,0.97
2013-6-9,89,82,77,89,-12,-100,100,47,81,30.11,30.01,8,3,17,0.01
2013-6-10,89,83,79,89,-8,-100,100,49,81,30.12,30.00,7,2,13,0.00
2013-6-11,90,83,79,90,-16,-100,100,45,81,30.10,29.99,6,1,13,0.13
2013-6-12,90,80,76,89,-64,-100,100,18,81,30.14,29.99,4,0,11,0.10
2013-6-13,91,80,74,91,-31,-100,100,37,81,30.05,29.92,7,0,14,0.00
2013-6-14,95,82,75,92,-3,-100,100,46,1,29.99,29.87,7,1,15,0.00
2013-6-15,92,83,75,92,-1,-100,100,52,79,30.05,29.91,5,0,11,0.00
2013-6-16,94,84,76,92,-3,-100,100,50,8,30.09,30.01,5,1,12,0.00
2013-6-17,93,85,77,92,25,-100,100,64,1,30.09,30.00,7,1,14,0.00
2013-6-18,94,85,77,91,16,-100,100,56,6,30.07,29.97,6,1,14,0.00
2013-6-19,95,85,78,93,10,-100,100,54,1,30.05,29.97,6,1,14,0.00
2013-6-20,94,83,74,91,32,-100,100,63,1,30.09,30.00,9,1,21,0.00
2013-6-21,93,85,76,90,35,-100,100,63,62,30.10,30.01,6,1,14,0.00
2013-6-22,92,84,76,88,56,-100,100,74,1,30.10,30.02,6,2,14,0.00
2013-6-23,92,84,77,89,42,-100,100,71,4,30.12,30.05,7,2,16,0.01
2013-6-24,90,85,80,88,65,-100,100,72,1,30.16,30.07,8,3,15,0.00
2013-6-25,92,84,79,90,48,-100,100,71,1,30.12,30.03,7,2,15,0.00
2013-6-26,93,84,78,90,10,-100,100,52,1,30.07,30.00,7,2,15,0.10
2013-6-27,91,82,77,91,8,-100,100,55,1,30.06,29.95,6,0,12,0.01
2013-6-28,95,84,74,90,-4,-100,100,44,10,30.00,29.85,10,1,21,0.21
2013-6-29,95,86,76,93,37,-100,100,66,67,29.90,29.80,11,2,25,0.74
2013-6-30,90,79,74,90,-58,-100,100,20,5,29.94,29.85,10,2,34,2.08
2013-7-1,89,79,76,89,-89,-100,100,5,81,29.99,29.91,10,2,24,0.01
2013-7-2,90,83,76,90,-56,-100,100,17,2,30.07,29.97,7,2,19,0.03
2013-7-11,92,83,76,91,-4,-100,100,43,3,30.03,29.93,7,1,14,0.00
2013-7-12,91,80,73,90,-38,-100,100,29,9,30.00,29.89,9,1,20,2.57
2013-7-13,85,75,73,68,-99,-100,81,0,81,30.04,29.91,11,0,21,1.12
2013-7-14,89,78,73,88,-82,-100,100,7,24,30.10,29.98,7,1,17,0.13
2013-7-15,89,80,72,89,-51,-100,100,22,1,30.15,30.01,7,1,21,0.54
2013-7-16,82,77,73,82,-81,-100,100,9,1,30.16,30.05,12,2,25,0.38
2013-7-17,82,78,74,82,-92,-100,100,4,96,30.15,30.05,6,1,13,0.08
2013-7-18,88,78,73,84,-95,-100,100,3,81,30.14,30.06,9,1,22,0.75
2013-7-19,84,76,74,72,-95,-100,81,2,81,30.12,30.08,3,0,9,0.00
2013-7-27,92,80,76,92,-75,-100,100,12,12,30.02,29.92,5,0,14,0.74
2013-7-28,84,79,74,-100,-100,-100,0,0,100,30.11,29.95,4,0,16,0.73
2013-7-29,91,82,75,91,-65,-100,100,14,16,30.15,30.02,6,1,14,0.00
2013-7-30,91,84,75,91,-48,-100,100,24,8,30.19,30.07,5,1,14,0.13
2013-7-31,92,84,78,92,-2,-100,100,50,33,30.13,30.01,7,2,16,0.00
2013-8-1,91,84,78,91,8,-100,100,52,18,30.06,29.95,6,2,16,0.00
2013-8-2,92,81,76,92,-41,-100,100,28,14,30.06,29.92,4,0,11,0.05
2013-8-3,87,78,73,69,-98,-100,82,1,82,30.17,30.00,10,0,29,0.61
2013-8-4,94,81,75,94,-60,-100,100,18,9,30.12,29.98,9,1,24,0.06
2013-8-5,92,81,76,92,-76,-100,100,11,27,30.05,29.95,7,1,19,0.25
2013-8-6,93,82,76,93,-45,-100,100,24,7,30.00,29.90,5,0,12,0.00
2013-8-7,91,84,77,91,-33,-100,100,29,6,30.00,29.90,7,1,17,0.00
2013-8-8,92,85,80,92,20,-100,100,58,19,30.03,29.93,8,3,17,0.01
2013-8-9,90,83,78,90,-10,-100,100,35,1,30.08,29.96,9,2,18,0.22
2013-8-10,93,85,79,93,15,-100,100,53,1,30.13,30.05,8,2,16,0.02
2013-8-11,92,85,80,92,8,-100,100,50,5,30.15,30.07,6,2,13,0.00
2013-8-12,91,84,76,91,6,-100,100,53,6,30.12,30.03,6,2,15,0.00
2013-8-13,95,85,78,94,12,-100,100,51,2,30.06,29.96,6,1,14,0.00
2013-8-14,94,83,77,93,-39,-100,100,30,3,30.04,29.95,5,0,12,0.00
2013-8-15,90,84,76,90,-28,-100,100,29,4,30.08,29.98,4,1,11,0.01
2013-8-16,94,85,78,94,-22,-100,100,35,1,30.09,29.99,5,1,13,0.00
2013-8-17,93,86,80,93,-3,-100,100,44,2,30.09,30.01,7,2,15,0.00
2013-8-18,92,86,81,92,20,-100,100,56,1,30.10,30.01,8,3,17,0.00
2013-8-19,93,86,81,92,30,-100,100,59,1,30.09,29.97,8,2,17,0.00
2013-8-20,93,85,78,92,10,-100,100,50,1,30.09,29.99,8,2,16,0.00
2013-8-21,90,84,79,90,-25,-100,100,33,1,30.10,30.00,9,3,18,0.16
2013-8-22,92,84,78,92,-2,-100,100,43,1,30.08,29.97,7,2,15,0.12
2013-8-23,92,84,77,92,2,-100,100,43,4,30.05,29.94,7,1,14,0.00
2013-8-24,94,85,77,92,5,-100,100,46,5,30.13,29.98,7,1,13,0.00
2013-8-25,90,82,78,90,2,-100,100,47,5,30.17,30.04,6,1,12,0.00
2013-8-26,91,81,72,91,-8,-100,100,41,1,30.14,30.03,10,1,21,1.55
2013-8-27,84,78,74,84,-52,-100,100,19,7,30.09,29.98,2,0,9,0.01
2013-8-28,89,80,74,88,-49,-100,100,23,1,30.06,29.93,10,1,21,0.27
2013-8-29,91,82,75,91,-4,-100,100,43,2,30.05,29.94,6,1,14,0.00
2013-8-30,93,84,76,91,10,-100,100,51,1,30.04,29.92,7,1,14,0.00
2013-8-31,92,81,74,92,3,-100,100,48,1,30.00,29.93,6,1,14,0.06
2013-9-1,91,80,74,90,-43,-100,100,23,2,30.05,29.92,4,0,11,0.01
2013-9-2,95,78,74,95,-66,-100,100,16,9,30.08,29.94,13,0,27,2.30
2013-9-3,90,80,73,88,-55,-100,100,14,1,30.07,29.95,3,0,9,0.00
2013-9-4,90,82,78,89,-67,-100,100,18,82,30.09,29.96,4,0,11,0.00
2013-9-5,92,85,80,92,-9,-100,100,39,2,30.11,30.01,6,1,13,0.02
2013-9-6,92,84,78,92,-8,-100,100,41,2,30.08,29.94,6,1,13,0.10
2013-9-7,87,80,74,86,-47,-100,100,22,1,30.02,29.92,7,0,17,0.55
2013-9-8,87,77,74,70,-95,-100,82,2,81,30.05,29.89,7,0,15,0.00